Temperature
13 13 13 13 13 13 13 13 13 12 12 12 12 12 12 12 12 12 12 12 12 12 12 12 11 11 12 12 12 12 12 12 12 12 12 12 11 11
13 13 13 13 13 13 13 13 13 13 12 12 12 12 12 12 12 11 11 11 11 11 11 11 11 11 11 11 11 11 11 11 11 11 11 11 11 11
13 13 13 13 13 13 13 12 12 12 12 12 12 12 12 12 12 11 11 11 11 11 11 11 11 11 11 11 11 11 11 11 11 11 11 11 11 11
13 13 13 13 12 12 12 12 12 12 12 12 12 12 12 11 11 11 11 11 11 11 11 11 11 11 11 11 11 11 11 11 11 11 11 11 11 11
13 13 12 12 12 12 12 12 12 12 12 12 12 11 11 11 11 11 11 11 11 11 11 11 11 11 11 11 11 10 10 11 11 10 10 10 10 10
13 12 12 12 12 12 12 12 12 12 11 11 11 11 11 11 11 11 11 11 11 11 11 10 10 10 10 10 10 10 10 10 10 10 10 10 10 10
12 12 12 12 12 12 12 12 12 11 11 11 11 11 11 11 11 10 10 10 10 10 10 10 10 10 10 10 10 10 10 10 10 10 10 10 10 10
12 12 12 12 12 12 12 11 11 11 11 11 11 11 11 11 10 10 10 10 10 10 10 10 10 10 10 10 10 10 10 10 10 10 10 10 10 10
12 11 11 11 12 12 11 11 11 11 11 11 11 11 11 11 10 10 10 10 10 10 10 10 10 10 10 10 10 9 10 10 10 9 9 9 9 10
11 11 11 11 11 11 11 11 11 11 11 11 11 11 11 10 10 10 10 10 9 9 9 9 9 9 9 9 9 9 9 9 9 9 9 9 9 9
11 11 11 11 11 10 11 11 11 11 10 10 10 10 10 10 10 10 10 9 9 9 9 9 9 9 9 9 9 9 9 9 9 9 9 9 9 9
10 10 10 10 10 10 10 10 10 10 10 10 10 10 10 10 9 9 9 9 9 9 8 8 8 8 8 9 9 9 9 9 9 9 9 9 9 9
10 10 10 10 10 10 10 10 10 10 10 10 10 10 9 9 9 9 9 9 9 8 8 8 8 8 8 8 8 8 8 8 8 8 8 8 8 8
10 10 9 9 9 9 9 9 9 9 9 9 9 9 9 9 9 9 8 8 8 8 8 8 8 7 7 7 8 8 8 8 8 8 8 8 8 8
9 9 9 9 9 9 9 9 9 9 9 8 8 9 9 8 8 8 8 8 8 8 8 7 7 7 7 7 7 7 7 7 8 8 8 8 8 8
8 8 8 8 8 8 8 8 8 8 8 8 8 8 8 8 7 7 7 7 7 7 7 7 7 7 7 7 7 7 7 7 7 7 7 7 7 7
8 8 8 8 8 8 8 8 8 7 7 7 7 7 7 7 7 7 7 7 7 7 7 6 6 6 6 6 7 7 7 7 7 7 7 7 7 7
7 7 7 7 7 7 7 7 7 7 7 7 6 6 7 6 6 6 6 6 6 6 6 6 6 6 6 6 6 6 6 6 6 6 6 6 6 6
7 7 6 6 6 6 6 6 6 6 6 6 6 6 6 6 6 5 5 5 5 5 5 5 5 5 5 5 5 6 6 6 6 6 6 6 6 6
6 6 6 6 6 6 6 6 6 6 6 5 5 5 5 5 5 5 5 5 5 5 5 5 5 5 5 5 5 5 5 5 5 5 5 5 5 5
5 5 5 5 5 5 5 5 5 5 5 5 5 5 5 5 4 4 4 4 4 4 4 4 4 4 4 4 4 5 5 5 5 5 5 5 5 5
5 5 5 5 5 5 5 5 5 5 5 4 4 4 4 4 4 4 4 4 4 4 4 4 4 4 4 4 4 4 4 4 4 4 4 4 4 4
4 4 4 4 4 4 4 4 4 4 4 4 4 4 4 4 4 4 4 3 3 3 3 3 3 3 3 3 4 4 4 4 4 4 4 4 4 4
Wind_Speed
3 3 2 2 2 2 3 4 4 2 2 2 2 2 3 3 4 4 3 3 2 1 0 1 1 2 2 2 2 2 2 2 2 2 2 2 3 2
3 3 3 2 2 2 2 2 3 4 3 3 3 2 2 3 4 3 4 3 3 2 1 1 1 1 1 2 2 2 1 1 1 2 2 3 3 3
3 3 4 3 2 2 2 2 2 3 3 2 1 1 1 2 1 2 3 3 3 4 3 3 2 2 1 1 1 1 1 1 1 2 2 2 2 2
5 4 4 3 3 3 3 3 3 3 3 3 1 1 2 2 2 1 1 2 3 4 4 4 3 3 3 2 2 1 1 0 1 1 2 2 2 2
5 5 5 4 4 3 3 4 3 3 2 3 2 1 1 1 0 1 1 1 2 3 3 4 4 4 3 3 3 2 2 2 2 2 2 3 3 3
5 5 6 6 6 5 4 5 4 3 2 3 2 1 1 1 1 1 1 1 2 2 2 3 3 3 4 4 4 4 3 3 3 3 3 4 4 4
3 4 5 6 7 6 5 5 5 4 3 3 3 1 1 1 2 2 2 1 2 1 1 2 1 2 3 4 4 4 5 5 5 5 5 5 5 5
4 4 3 4 6 7 7 7 8 7 6 4 4 4 4 3 2 2 1 0 2 2 1 2 1 2 3 4 5 6 5 5 5 5 6 6 6 6
4 4 3 3 3 3 5 5 7 8 9 7 6 6 5 5 5 3 3 3 3 3 1 2 2 3 4 5 7 7 6 5 5 5 5 5 6 6
4 4 3 3 3 3 3 3 4 4 6 5 6 6 6 6 7 6 5 2 1 1 2 2 2 3 3 5 7 7 6 5 5 5 5 5 5 6
3 3 3 3 4 4 4 3 2 2 3 3 4 4 5 5 5 4 3 2 2 2 1 2 2 2 2 3 5 6 6 6 6 6 6 5 5 5
2 3 4 4 4 5 5 4 3 2 1 1 0 0 1 3 5 6 6 4 2 2 2 2 1 0 1 2 2 3 4 6 7 7 6 6 5 3
3 3 3 4 4 5 5 4 5 3 2 2 1 1 0 1 2 3 4 5 4 3 3 3 2 1 2 2 2 2 2 3 4 5 6 7 6 5
3 3 3 4 4 5 4 4 4 3 2 2 1 1 1 2 2 2 2 3 4 4 4 4 2 3 2 1 2 2 2 2 2 3 3 4 5 6
3 3 3 3 3 3 4 4 3 3 2 2 2 2 2 2 1 1 0 1 0 1 2 3 2 2 2 2 2 2 2 2 2 2 2 2 2 2
1 1 1 2 2 2 2 2 2 3 3 3 3 2 1 1 1 1 1 1 0 1 2 1 2 3 2 2 2 2 2 2 2 2 2 2 2 2
1 1 1 1 1 1 1 1 1 1 2 1 2 1 1 1 1 0 1 1 1 1 1 2 2 0 1 1 1 2 2 2 2 1 1 1 1 2
3 2 2 2 3 3 2 2 2 2 2 2 3 2 2 2 1 0 1 1 1 1 2 1 0 1 2 2 1 2 2 2 2 1 1 1 2 2
3 2 2 3 3 3 3 3 2 3 3 3 3 3 2 2 2 1 1 1 1 1 2 1 1 1 1 3 3 2 2 2 1 1 1 1 2 2
2 2 2 2 2 3 3 3 3 2 2 3 3 3 3 3 2 2 2 2 1 1 1 1 2 3 4 4 3 3 3 2 2 2 1 1 1 2
2 2 2 2 2 3 3 3 3 3 3 3 3 3 3 3 3 2 3 3 2 2 2 3 3 3 1 1 0 2 2 2 2 2 1 1 1 1
3 3 3 3 3 3 3 3 3 3 3 3 3 3 3 3 3 3 3 3 3 3 3 2 1 0 1 2 2 2 2 2 2 2 2 1 2 2
3 3 3 3 3 3 3 3 4 3 4 4 4 3 3 3 3 3 3 3 2 2 1 1 0 0 1 2 2 2 2 1 1 1 2 3 1 1
Wind_Direction
214 210 212 222 200 193 176 167 162 189 247 257 264 260 219 196 197 179 194 208 207 216 245 4 0 355 354 354 343 332 334 342 352 2 358 351 350 352
219 217 226 228 213 198 184 177 171 172 209 239 239 250 217 205 208 198 214 223 221 226 235 293 327 314 309 333 342 346 337 326 332 325 328 331 337 345
225 218 230 224 215 214 190 175 175 162 190 247 244 244 190 194 196 216 232 226 233 240 244 257 271 274 272 305 321 330 329 335 339 329 323 328 326 335
223 221 234 223 219 209 192 190 185 178 172 196 231 232 228 212 198 206 230 239 239 252 246 249 263 263 253 251 269 283 273 279 304 312 317 311 305 297
219 216 221 203 214 208 195 193 187 176 161 170 208 226 260 205 154 247 253 281 257 261 246 253 266 265 247 244 246 253 267 259 262 277 289 285 282 273
231 220 214 205 207 204 201 196 184 173 164 170 193 219 241 217 151 186 270 281 271 258 255 253 263 265 251 247 245 246 254 255 254 263 270 267 262 260
248 236 224 217 212 204 202 195 184 182 177 184 195 196 205 193 209 205 223 278 281 252 279 270 266 279 268 254 253 250 255 253 250 256 258 254 253 254
234 245 248 231 229 216 208 197 186 186 191 191 196 200 212 208 198 195 187 181 270 255 193 270 210 254 263 254 259 255 256 258 251 253 254 251 252 253
224 228 247 247 235 221 220 211 210 205 193 187 195 208 205 202 185 193 204 207 232 232 169 254 247 253 264 259 262 261 256 255 251 252 258 257 252 248
222 216 221 243 232 206 211 212 222 218 208 198 202 212 211 202 194 195 200 206 264 244 163 220 246 256 271 259 258 260 261 256 252 255 260 254 252 251
236 226 213 219 235 202 182 193 222 251 232 204 198 207 208 200 184 158 157 164 240 243 192 188 235 271 273 265 266 261 259 258 256 259 261 253 246 248
241 239 229 217 214 184 178 183 207 236 234 225 222 219 200 185 176 178 182 186 201 225 216 182 210 186 284 274 273 278 272 268 263 258 258 254 244 234
224 237 238 218 199 188 182 193 211 197 181 174 173 171 172 189 199 196 190 189 192 218 204 174 195 191 204 263 282 271 266 279 278 268 262 256 243 219
225 232 230 210 198 193 190 200 186 152 150 149 144 196 224 228 231 224 211 203 204 210 204 177 185 197 194 230 263 280 279 274 273 275 274 271 249 239
229 227 227 207 194 196 195 182 160 158 162 170 201 227 234 230 208 204 204 143 116 199 195 201 184 189 189 212 229 245 269 271 263 269 274 258 245 241
209 200 187 166 161 175 167 165 168 175 175 194 209 226 222 124 142 171 180 167 97 318 331 300 202 174 183 223 213 239 239 242 262 263 262 266 267 239
156 97 80 129 150 149 143 168 180 174 183 195 190 194 187 172 178 75 122 141 167 228 294 330 337 160 159 175 232 250 249 263 259 247 243 278 294 272
137 153 176 187 189 194 192 203 206 206 201 194 195 199 195 190 201 171 102 143 193 224 248 263 312 0 5 344 266 236 248 264 279 261 226 234 288 298
149 173 191 202 205 205 206 203 213 219 201 192 198 201 197 192 186 197 197 183 237 230 239 237 203 185 245 280 297 272 240 267 260 266 248 226 255 278
173 190 208 215 214 210 210 209 212 209 197 197 200 198 194 189 189 199 203 212 226 252 259 243 213 209 220 235 255 294 286 246 230 238 266 291 297 305
205 214 218 216 220 218 216 210 206 204 204 203 204 200 196 189 196 207 213 218 212 215 231 250 248 240 234 143 285 300 311 307 241 223 228 234 300 318
212 216 218 220 218 218 217 213 206 205 205 204 205 203 202 199 203 210 211 213 219 224 235 256 289 226 183 211 241 264 297 333 353 32 60 152 190 211
216 214 214 216 220 221 221 215 208 208 205 205 205 205 203 207 210 211 214 211 216 227 239 253 286 317 246 223 233 252 270 304 342 16 6 12 34 312
Height
1528 1528 1528 1528 1528 1528 1528 1528 1528 1527 1527 1527 1528 1528 1528 1528 1528 1527 1527 1527 1526 1526 1525 1525 1525 1524 1524 1523 1522 1522 1521 1521 1521 1521 1520 1520 1520 1519
1525 1525 1525 1526 1526 1526 1526 1526 1526 1526 1526 1526 1526 1526 1526 1526 1526 1526 1525 1525 1525 1524 1524 1523 1523 1523 1522 1522 1521 1520 1520 1520 1520 1519 1519 1519 1518 1518
1522 1522 1522 1523 1523 1523 1523 1523 1523 1524 1523 1524 1524 1524 1524 1524 1524 1524 1524 1523 1523 1523 1523 1522 1522 1521 1520 1520 1520 1519 1519 1519 1518 1518 1518 1517 1517 1517
1518 1519 1519 1519 1519 1520 1520 1520 1520 1521 1521 1521 1521 1521 1522 1522 1522 1522 1522 1522 1521 1521 1521 1520 1520 1519 1519 1518 1518 1518 1517 1517 1517 1516 1516 1516 1516 1515
1515 1515 1516 1516 1516 1516 1517 1517 1517 1518 1518 1519 1519 1519 1519 1520 1520 1520 1520 1520 1520 1519 1519 1519 1518 1518 1517 1517 1516 1516 1516 1515 1515 1514 1514 1514 1514 1514
1511 1512 1512 1512 1512 1513 1513 1514 1514 1515 1515 1516 1516 1516 1517 1517 1517 1517 1517 1517 1517 1517 1517 1517 1516 1515 1515 1515 1514 1514 1514 1513 1513 1512 1512 1512 1512 1511
1507 1508 1508 1509 1509 1510 1510 1510 1511 1511 1512 1512 1513 1513 1513 1514 1514 1514 1514 1515 1515 1515 1514 1514 1514 1513 1513 1512 1512 1511 1511 1511 1511 1510 1509 1509 1509 1509
1503 1504 1504 1504 1505 1506 1506 1507 1507 1508 1508 1509 1509 1509 1509 1510 1511 1511 1511 1511 1511 1512 1511 1511 1511 1510 1510 1509 1509 1509 1509 1508 1508 1507 1507 1506 1506 1506
1499 1500 1500 1500 1501 1501 1502 1503 1503 1504 1505 1505 1505 1505 1506 1507 1508 1508 1508 1508 1508 1509 1508 1507 1507 1507 1507 1507 1507 1506 1506 1506 1505 1504 1504 1503 1503 1503
1495 1495 1496 1496 1497 1497 1498 1499 1499 1500 1500 1501 1502 1502 1503 1504 1504 1505 1505 1505 1506 1506 1506 1504 1504 1504 1504 1504 1503 1503 1503 1502 1502 1501 1500 1500 1500 1500
1491 1491 1492 1492 1493 1493 1494 1494 1495 1496 1497 1497 1498 1499 1499 1500 1500 1501 1501 1501 1501 1501 1502 1501 1500 1500 1500 1500 1500 1500 1499 1499 1498 1498 1497 1497 1497 1497
1486 1487 1487 1488 1489 1489 1490 1490 1491 1492 1493 1493 1494 1495 1495 1496 1496 1497 1497 1497 1497 1497 1497 1498 1497 1497 1496 1496 1496 1496 1495 1495 1495 1494 1494 1494 1493 1493
1481 1482 1483 1483 1484 1485 1486 1486 1487 1488 1489 1489 1490 1490 1491 1491 1492 1492 1493 1493 1493 1493 1494 1494 1493 1493 1493 1492 1492 1492 1492 1491 1491 1491 1490 1490 1490 1490
1477 1477 1478 1479 1479 1480 1481 1482 1483 1484 1484 1485 1485 1486 1487 1487 1488 1488 1489 1490 1490 1490 1491 1491 1490 1490 1489 1488 1488 1488 1488 1488 1487 1487 1487 1487 1487 1487
1473 1473 1474 1474 1475 1476 1477 1478 1478 1479 1479 1480 1481 1482 1483 1484 1484 1485 1485 1486 1486 1487 1487 1487 1487 1487 1486 1485 1485 1484 1484 1484 1484 1484 1483 1483 1483 1483
1469 1469 1470 1470 1471 1472 1472 1473 1474 1475 1475 1476 1477 1478 1479 1480 1480 1481 1481 1482 1482 1482 1483 1483 1483 1483 1482 1482 1482 1481 1481 1481 1480 1480 1480 1480 1479 1480
1464 1465 1465 1466 1466 1467 1468 1469 1470 1471 1471 1472 1473 1474 1475 1475 1476 1476 1477 1478 1478 1478 1478 1479 1479 1479 1479 1479 1478 1478 1477 1477 1477 1477 1476 1475 1475 1476
1461 1460 1461 1461 1462 1463 1464 1465 1466 1467 1467 1468 1469 1470 1470 1471 1471 1472 1473 1473 1473 1474 1474 1474 1475 1475 1475 1475 1475 1474 1474 1474 1474 1474 1473 1472 1472 1472
1456 1457 1457 1458 1459 1460 1461 1461 1462 1463 1464 1464 1465 1466 1466 1467 1467 1468 1469 1469 1470 1470 1470 1471 1471 1471 1470 1470 1471 1472 1471 1471 1470 1470 1470 1470 1469 1469
1452 1453 1454 1454 1455 1456 1457 1457 1458 1459 1459 1460 1461 1462 1462 1463 1464 1464 1465 1465 1466 1466 1466 1467 1467 1467 1467 1467 1467 1467 1468 1468 1467 1467 1466 1466 1466 1467
1449 1450 1450 1451 1451 1452 1453 1453 1454 1454 1455 1456 1457 1457 1458 1459 1460 1461 1461 1462 1462 1462 1462 1463 1463 1464 1465 1465 1464 1463 1464 1465 1465 1464 1463 1463 1462 1462
1446 1446 1447 1447 1448 1448 1448 1449 1449 1450 1451 1452 1452 1453 1454 1455 1456 1457 1457 1458 1458 1459 1459 1459 1460 1460 1460 1460 1460 1460 1460 1461 1461 1461 1461 1461 1460 1459
1442 1443 1443 1443 1444 1444 1444 1445 1445 1446 1447 1447 1448 1449 1450 1451 1452 1453 1453 1454 1455 1455 1455 1455 1455 1456 1456 1456 1456 1456 1456 1457 1457 1457 1457 1457 1457 1457